George, South Africa

4:46 AM SAST on April 23, 2018 (GMT +0200)
George

Weather History for FAGG - July, 2014

Change the Weather History Date:

Saturday, July 19, 2014

  Actual Average Record
Temperature  
Mean Temperature 54 °F -  
Max Temperature 59 °F 64 °F 81 °F (2012)
Min Temperature 50 °F 45 °F 39 °F (1999)
Degree Days  
Heating Degree Days 10    
Growing Degree Days 4 (Base 50)    
Moisture  
Dew Point 48 °F    
Average Humidity 74    
Maximum Humidity 94    
Minimum Humidity 46    
Precipitation  
Precipitation 0.00 in - - ()
Sea Level Pressure  
Sea Level Pressure 30.15 in    
Wind  
Wind Speed 13 mph ()    
Max Wind Speed 24 mph    
Max Gust Speed -    
Visibility 7.1 miles    
Events Rain    
Averages and records for this station are not official NWS values.
T = Trace of Precipitation, MM = Missing Value Source: Averaged Metar Reports

Daily Weather History Graph

Daily Weather History Graph

Search for Another Location

Airport or City:

Astronomy

Jul. 19, 2014 Rise Set
Actual Time 7:31 AM SAST 5:41 PM SAST
Civil Twilight 7:04 AM SAST 6:09 PM SAST
Nautical Twilight 6:34 AM SAST 6:39 PM SAST
Astronomical Twilight 6:04 AM SAST 7:09 PM SAST
Moon 12:40 AM SAST (7/19) 12:05 PM SAST (7/19)
Length of Visible Light 11h 04m
Length of Day
10h 10m
Waning Gibbous, 47% of the Moon is Illuminated
Jul 19
Waning Gibbous
Jul 27
New
Aug 4
First Quarter
Aug 10
Full
Aug 17
Last Quarter

Hourly Weather History & Observations

Time (SAST) Temp. Dew Point Humidity Pressure Visibility Wind Dir Wind Speed Gust Speed Precip Events Conditions
12:00 AM 60.8 °F 41.0 °F 48% 29.95 in 6.2 mi WNW 24.2 mph - N/A   Mostly Cloudy
1:00 AM 59.0 °F 42.8 °F 55% 29.98 in 6.2 mi WNW 20.7 mph - N/A   Mostly Cloudy
2:00 AM 58 °F 43 °F 46% 29.99 in 19 mi West 16.1 mph - -  
2:00 AM 57.2 °F 42.8 °F 59% 29.98 in 6.2 mi West 15.0 mph - N/A   Mostly Cloudy
3:00 AM 55.4 °F 46.4 °F 72% 30.01 in 6.2 mi West 12.7 mph - N/A   Mostly Cloudy
4:00 AM 51.8 °F 48.2 °F 88% 30.04 in 4.3 mi WNW 12.7 mph - N/A   Mostly Cloudy
5:00 AM 51 °F 49 °F 89% 30.06 in 3 mi WNW 13.8 mph - - Rain Light Rain
5:00 AM 51.8 °F 48.2 °F 88% 30.04 in 3.1 mi WNW 12.7 mph - N/A Rain Light Rain
6:00 AM 51.8 °F 48.2 °F 88% 30.06 in 6.2 mi WNW 16.1 mph - N/A   Mostly Cloudy
7:00 AM 51.8 °F 50.0 °F 94% 30.09 in 5.0 mi WNW 12.7 mph - N/A   Drizzle
8:00 AM 52 °F 50 °F 89% 30.14 in 6 mi WNW 13.8 mph - - Rain Light Drizzle
8:00 AM 51.8 °F 50.0 °F 94% 30.12 in 6.2 mi WNW 12.7 mph - N/A   Mostly Cloudy
9:00 AM 53.6 °F 48.2 °F 82% 30.15 in 6.2 mi WNW 11.5 mph - N/A   Mostly Cloudy
10:00 AM 53.6 °F 48.2 °F 82% 30.18 in 6.2 mi NW 12.7 mph - N/A   Mostly Cloudy
11:00 AM 55 °F 49 °F 73% 30.21 in 12 mi WNW 12.7 mph - -   Mostly Cloudy
11:00 AM 55.4 °F 50.0 °F 82% 30.18 in 6.2 mi WNW 11.5 mph - N/A   Mostly Cloudy
12:00 PM 57.2 °F 48.2 °F 72% 30.18 in 6.2 mi West 10.4 mph - N/A   Mostly Cloudy
1:00 PM 57.2 °F 48.2 °F 72% 30.18 in 6.2 mi West 12.7 mph - N/A   Mostly Cloudy
2:00 PM 58 °F 49 °F 63% 30.19 in 12 mi WNW 12.7 mph - -   Mostly Cloudy
2:00 PM 59.0 °F 48.2 °F 67% 30.18 in 6.2 mi WNW 12.7 mph - N/A   Mostly Cloudy
3:00 PM 59.0 °F 48.2 °F 67% 30.18 in 6.2 mi NW 10.4 mph - N/A   Mostly Cloudy
4:00 PM 59.0 °F 50.0 °F 72% 30.18 in 6.2 mi NW 9.2 mph - N/A   Mostly Cloudy
5:00 PM 58 °F 48 °F 61% 30.21 in 12 mi WSW 9.2 mph - -   Mostly Cloudy
5:00 PM 59.0 °F 48.2 °F 67% 30.18 in 6.2 mi WSW 9.2 mph - N/A   Mostly Cloudy
6:00 PM 55.4 °F 48.2 °F 77% 30.21 in 6.2 mi West 5.8 mph - N/A   Mostly Cloudy
7:00 PM 55.4 °F 48.2 °F 77% 30.24 in 6.2 mi West 6.9 mph - N/A   Mostly Cloudy
8:00 PM 55 °F 48 °F 70% 30.28 in 12 mi West 5.8 mph - -   Mostly Cloudy
8:00 PM 55.4 °F 48.2 °F 77% 30.27 in 6.2 mi West 5.8 mph - N/A   Mostly Cloudy
9:00 PM 55.4 °F 46.4 °F 72% 30.30 in 6.2 mi WSW 8.1 mph - N/A   Overcast
10:00 PM 53.6 °F 48.2 °F 82% 30.30 in 6.2 mi WNW 6.9 mph - N/A   Mostly Cloudy
11:00 PM 53.6 °F 46.4 °F 77% 30.33 in 6.2 mi WNW 8.1 mph - N/A   Mostly Cloudy